Location: Saint Louis
(38.6272°N, 90.1978°W)
Time: 03:14:29
(UTC-05:00)

Hubble Space Telescope - Visible Passes

Search period start: 29 May 2015 00:00
Search period end: 08 June 2015 00:00
Orbit: 542 x 546 km, 28.5° (Epoch: 27 May)

Date Brightness Start Highest point End Pass type
(mag) Time Alt. Az. Time Alt. Az. Time Alt. Az.
02 Jun 3.0 04:44:25 10° S 04:45:48 11° SSE 04:47:14 10° SE visible
03 Jun 2.9 04:34:59 10° SSW 04:36:58 13° SSE 04:39:04 10° SE visible
04 Jun 2.7 04:26:35 13° SSW 04:28:08 15° SSE 04:30:38 10° SE visible
05 Jun 2.5 04:18:11 15° S 04:19:18 17° S 04:22:03 10° SE visible
06 Jun 2.4 04:09:49 18° S 04:10:29 18° S 04:13:24 10° SE visible
07 Jun 2.3 04:01:29 19° S 04:01:40 19° S 04:04:41 10° SE visible
